Skip Page Navigation
NASA JPL Caltech
NASA Logo - Jet Propulsion Laboratory + View the NASA Portal
+ Center for Near-Earth Object Studies
JPL Home Earth Solar System Stars & Galaxies Technology
JPL Solar System Dynamics
BODIES ORBITS EPHEMERIDES TOOLS PHYSICAL DATA DISCOVERY FAQ SITE MAP
JPL Small-Body Database Browser
Search: [ help ]  
66525 (1999 RH103)
Classification: Main-belt Asteroid          SPK-ID: 2066525
Ephemeris | Orbit Diagram | Orbital Elements | Mission Design | Physical Parameters | Discovery Circumstances | Close-Approach Data ]

[ show orbit diagram ]
Orbital Elements at Epoch 2459000.5 (2020-May-31.0) TDB
Reference: JPL 26 (heliocentric ecliptic J2000)
 Element Value Uncertainty (1-sigma)   Units 
e .2209475197570884 3.7552e-08  
a 2.429937121797111 8.2932e-09 au
q 1.893048541570362 9.2569e-08 au
i 12.25676660973487 4.3335e-06 deg
node 214.4991917696025 2.1449e-05 deg
peri 180.4655114537105 2.3886e-05 deg
M 135.0777480599306 1.147e-05 deg
tp 2458481.374584865626
(2018-Dec-28.87458487)
4.2979e-05 TDB
period 1383.537645041715
3.79
7.0829e-06
1.939e-08
d
yr
n .2602025331874114 1.3321e-09 deg/d
Q 2.966825702023861 1.0126e-08 au
  Orbit Determination Parameters
   # obs. used (total)      1021  
   data-arc span      7595 days (20.79 yr)  
   first obs. used      1999-07-12  
   last obs. used      2020-04-27  
   planetary ephem.      DE431  
   SB-pert. ephem.      SB431-N16  
   condition code      0  
   norm. resid. RMS      .47653  
   source      ORB  
   producer      Otto Matic  
   solution date      2020-May-20 13:01:00  

Additional Information
 Earth MOID = .89981 au 
 Jupiter MOID = 2.46612 au 
 T_jup = 3.444 
[ hide covariance matrix ]
Orbital Elements at Epoch 2457327.5 (2015-Nov-01.0) TDB
Reference: JPL 26 (heliocentric ecliptic J2000)
 Element Value Uncertainty (1-sigma)   Units 
e .2192713101483037 3.7511e-08  
q 1.898083610630373 9.2308e-08 au
tp 2457095.371599761346
(2015-Mar-13.87159976)
4.1481e-05 TDB
node 214.5614213328577 2.1493e-05 deg
peri 180.1581202116667 2.3974e-05 deg
i 12.23786846267629 4.3316e-06 deg
  Orbit Determination Parameters
   # obs. used (total)      1021  
   data-arc span      7595 days (20.79 yr)  
   first obs. used      1999-07-12  
   last obs. used      2020-04-27  
   planetary ephem.      DE431  
   SB-pert. ephem.      SB431-N16  
   condition code      0  
   norm. resid. RMS      .47653  
   source      ORB  
   producer      Otto Matic  
   solution date      2020-May-20 13:01:00  

Additional Information
 Jupiter MOID = 2.46612 au 
 T_jup = 3.444 
Orbit Covariance (6×6)
  e q tp node peri i
e 1.407060124752822E-15 -3.454265124437431E-15 -8.50820381438471E-13 -5.344302726443092E-15 -2.259480994558204E-13 6.199672930754579E-16
q -3.454265124437431E-15 8.520837975498085E-15 2.129188400802091E-12 1.457769047233733E-14 5.651231184358512E-13 -1.621340565877631E-15
tp -8.50820381438471E-13 2.129188400802091E-12 1.720641039357645E-9 7.199081092549329E-12 4.652304413357255E-10 1.287546393828365E-13
node -5.344302726443092E-15 1.457769047233733E-14 7.199081092549329E-12 4.619480938215595E-10 -4.494295679435419E-10 -4.539510402566225E-11
peri -2.259480994558204E-13 5.651231184358512E-13 4.652304413357255E-10 -4.494295679435419E-10 5.747646042075982E-10 4.440455310379977E-11
i 6.199672930754579E-16 -1.621340565877631E-15 1.287546393828365E-13 -4.539510402566225E-11 4.440455310379977E-11 1.876289159392266E-11

Ephemeris | Orbit Diagram | Orbital Elements | Mission Design | Physical Parameters | Discovery Circumstances | Close-Approach Data ]

Physical Parameter Table
Parameter Symbol Value Units Sigma Reference Notes
absolute magnitude H 15.2   n/a MPO468592  

66525 (1999 RH103)          Discovered 1999-Sep-08 by LINEAR at Socorro
Reference: 20030910/Numbers.arcLast Updated: 2004-04-19

[ show close-approach data ]
Alternate Designations
 1999 RH103 = 2001 FL118 
Ephemeris | Orbit Diagram | Orbital Elements | Mission Design | Physical Parameters | Discovery Circumstances | Close-Approach Data ]
ABOUT SSD CREDITS/AWARDS PRIVACY/COPYRIGHT GLOSSARY LINKS
FirstGov 2020-Jul-11 19:05 UT
(server date/time)  
NASA Home Page
Site Manager:   Ryan S. Park
Webmaster  Alan B. Chamberlin